Location: Dötzum
(52.0808°N, 9.8063°E)
Time: 04:09:54
(UTC+00:00)

Cosmos 1455 - Pass Details

Date: 27 May 2022
Orbit: 492 x 515 km, 82.5° (Epoch: 24 June)

Event Time Altitude Azimuth Distance (km) Brightness Sun altitude
Rises 00:25:44 0° 356° (N) 2,589 7.1 -15.2°
Reaches altitude 10° 00:28:01 10° 6° (N) 1,700 6.1 -15.1°
Maximum altitude 00:31:25 33° 72° (ENE) 844 3.6 -14.9°
Drops below altitude 10° 00:34:48 10° 138° (SE) 1,687 4.5 -14.8°
Enters shadow 00:34:54 - 139° (SE) 1,725 4.6 -14.8°
